{"data":{"norad_id":64750,"intl_designator":"2025-144AC","name":"STARLINK-34531","alt_names":[],"object_type":"PAYLOAD","status":"ACTIVE","operator":null,"country":"US","launch_date":"2025-07-02","launch_site_code":"AFETR","launch_vehicle":null,"mission":null,"orbit_class":"UNKNOWN","rcs_meters":null,"size_class":null,"mass_kg":null,"dimensions":null,"purposes":["comms"],"wikipedia_slug":null,"has_3d_model":false,"image_url":null,"decayed_at":null,"tle_current":{"epoch":"2026-09-20T17:45:19.022400Z","epoch_age_seconds":107319,"freshness":"FRESH","line1":"1 64750U 25144AC  26263.73980350  .00020203  00000+0  60731-3 0  9998","line2":"2 64750  53.1608 352.3068 0001299  92.2079 267.9073 15.34408381 69617","mean_motion":15.34408381,"eccentricity":0.0001299,"inclination_deg":53.1608,"raan_deg":352.3068,"arg_perigee_deg":92.2079,"mean_anomaly_deg":267.9073,"bstar":0.00060731,"rev_number":6961,"period_min":93.847245481123,"perigee_km":461.78970831088,"apogee_km":463.56695213367,"semimajor_km":6840.8153302223,"source":"CELESTRAK","updated_at":"2026-09-21T09:00:35.414594Z"}}}